Flag Weather past 2 weeks in Huambo, Angola

Now
84 °F

Partly sunny.


Feels Like: 90 °F
Forecast: 60 / 77 °F
Wind: 9 mph from Southwest

Location: Luanda Airport

Current Time: Nov 23, 2014 at 6:17:27 PM

Latest Report: Nov 23, 2014 at 5:00 PM


Visibility: N/A

Pressure: 29.83 "Hg

Humidity: 66%

Dew point: 72 °F

Location of HuamboLocation

Historic Weather in Huambo — Graph

°F

Huambo temperature yesterday

Maximum temperature yesterday: 88 °F (at 10:00 AM)
Minimum temperature yesterday: 77 °F (at 12:00 AM)
Average temperature yesterday: 81 °F

Past Weeks' High & Low Weather Summary

 TemperatureHumidityPressure
High88 °F (Nov 10, 12:00 PM)94% (Nov 19, 1:00 AM)30.12 "Hg (Nov 19, 1:00 AM)
Low63 °F (Nov 19, 1:00 PM)55% (Nov 14, 12:00 PM)29.71 "Hg (Nov 17, 5:00 PM)
Average80 °F76%29.87 "Hg
* Reported Nov 8 5:00 PM — Nov 23 5:00 PM, Huambo, Weather by CustomWeather, © 2014

Note: Actual official high and low records may vary slightly from our data, if they occured in-between our weather recording intervals... More about our weather records

Advertising

Huambo weather history for previous 24 hours

 ConditionsComfort  
Time TempWeatherWind HumidityBarometerVisibility
5:00 PM
Nov 23
84 °FPartly sunny.9 mph66%29.83 "HgN/A
3:00 PM88 °FPartly sunny.14 mph59%29.83 "HgN/A
2:00 PM88 °FBroken clouds.14 mph59%29.83 "HgN/A
1:00 PM88 °FScattered clouds.14 mph59%29.89 "HgN/A
12:00 PM88 °FPartly sunny.12 mph59%29.92 "HgN/A
11:00 AM88 °FPartly sunny.7 mph59%29.95 "HgN/A
10:00 AM88 °FScattered clouds.5 mph59%29.95 "HgN/A
9:00 AM84 °FScattered clouds.5 mph62%29.95 "HgN/A
8:00 AM82 °FScattered clouds.7 mph70%29.95 "HgN/A
7:00 AM79 °FScattered clouds.7 mph79%29.92 "HgN/A
6:00 AM77 °FBroken clouds.6 mph89%29.92 "HgN/A
5:00 AM77 °FPassing clouds.6 mph83%29.92 "HgN/A
4:00 AM77 °FPassing clouds.5 mph83%29.89 "HgN/A
3:00 AM77 °FPassing clouds.7 mph83%29.89 "HgN/A
2:00 AM77 °FPassing clouds.7 mph89%29.92 "HgN/A
1:00 AM77 °FPassing clouds.9 mph89%29.92 "HgN/A
12:00 AM77 °FPassing clouds.9 mph89%29.89 "HgN/A
11:00 PM
Nov 22
81 °FPassing clouds.12 mph79%29.92 "HgN/A
10:00 PM79 °FPassing clouds.9 mph84%29.92 "HgN/A
9:00 PM79 °FPassing clouds.12 mph84%29.89 "HgN/A
8:00 PM81 °FPassing clouds.12 mph79%29.89 "HgN/A
7:00 PM81 °FPartly cloudy.13 mph79%29.86 "HgN/A
Weather by CustomWeather, © 2014

See weather overviewHow to use our weather pages